Regional Weather Roundup
Issued by NWS

Home | Current Version | Previous Version | Text Only | Print | Product List | Glossary Off
Versions: 1 2 3 4 5 6 7 8 9 10 11 12 13 14 15 16 17 18 19 20 21 22 23 24 25 26 27 28 29 30 31 32 33 34 35 36 37 38 39 40 41 42 43 44 45 46 47 48 49 50

000
ASUS43 KLMK 310802
RWRKY
KENTUCKY REGIONAL WEATHER ROUNDUP
NATIONAL WEATHER SERVICE LOUISVILLE KY
300 AM EST SAT JAN 31 2015

NOTE "FAIR" INDICATES FEW OR NO CLOUDS BELOW 12,000 FEET
WITH NO SIGNIFICANT WEATHER AND/OR OBSTRUCTIONS TO VISIBILITY.

KYZ001>023-026-027-061>063-070>075-310900-
WESTERN AND SOUTH CENTRAL KENTUCKY

CITY           SKY/WX    TMP DP  RH WIND       PRES   REMARKS
PADUCAH        MOCLDY    27  22  81 CALM      30.40F
HENDERSON      PTCLDY    21  18  86 CALM      30.42S
OWENSBORO      PTCLDY    24  20  85 CALM      30.42S
HOPKINSVILLE   PTCLDY    27  19  74 CALM      30.40F
BOWLING GREEN  CLEAR     23  18  81 CALM      30.42S
GLASGOW        NOT AVBL
$$

KYZ024-025-028>034-038-045-046-053-310900-
NORTH CENTRAL KENTUCKY

CITY           SKY/WX    TMP DP  RH WIND       PRES   REMARKS
LOUISVILLE/SDF CLEAR     25  16  68 E3        30.43S
LOUISVILLE/LOU CLEAR     24  16  71 CALM      30.43S
FORT KNOX      CLEAR     21  16  78 E2        30.39F
$$

KYZ035>037-039>044-047>052-055>060-089>105-310900-
NORTHEAST KENTUCKY

CITY           SKY/WX    TMP DP  RH WIND       PRES   REMARKS
LEXINGTON      CLEAR     21  13  71 SE6       30.40F WCI  13
COVINGTON      CLEAR     20  14  77 S3        30.40F
FRANKFORT      CLEAR     16  12  84 CALM      30.40F
$$

KYZ054-064>069-076>088-106>120-310900-
SOUTHEAST KENTUCKY

CITY           SKY/WX    TMP DP  RH WIND       PRES   REMARKS
JACKSON        CLEAR     22  11  62 CALM      30.38S
LONDON         CLEAR     21  14  74 CALM      30.39S
SOMERSET       NOT AVBL
MIDDLESBORO    NOT AVBL
MONTICELLO     SUNNY     15  12  88 CALM      30.43F
$$




USA.gov is the U.S. government's official web portal to all federal, state and local government web resources and services.